Home > Time Zones > World Clock > Weather > Oman > Muscat > Past weeks

Flag for Oman Weather past 2 weeks in Muscat, Oman

Now
77 °F

Passing clouds.


Feels Like: 79 °F
Forecast: 73 / 77 °F
Wind: 7 mph from North

Location: International Airport

Current Time: Dec 18, 2014 at 1:42:35 PM

Latest Report: Dec 18, 2014 at 12:50 PM


Visibility: N/A

Pressure: 30.09 "Hg

Humidity: 61%

Dew point: 63 °F

Location of MuscatLocation

Historic Weather in Muscat — Graph

°F

Muscat temperature yesterday

Maximum temperature yesterday: 77 °F (at 11:50 AM)
Minimum temperature yesterday: 63 °F (at 4:50 AM)
Average temperature yesterday: 71 °F

Past Weeks' High & Low Weather Summary

 TemperatureHumidityPressure
High81 °F (Dec 4, 12:50 PM)88% (Dec 6, 2:50 AM)30.18 "Hg (Dec 6, 2:50 AM)
Low63 °F (Dec 10, 3:50 AM)36% (Dec 16, 9:50 AM)29.98 "Hg (Dec 11, 2:50 PM)
Average73 °F62%30.09 "Hg
* Reported Dec 3 11:50 AM — Dec 18 11:50 AM, Muscat, Weather by CustomWeather, © 2014

Note: Actual official high and low records may vary slightly from our data, if they occured in-between our weather recording intervals... More about our weather records

Advertising

Muscat weather history for previous 24 hours

 ConditionsComfort  
Time TempWeatherWind HumidityBarometerVisibility
11:50 AM
Dec 18
75 °FScattered clouds.6 mph65%30.12 "HgN/A
10:50 AM77 °FScattered clouds.3 mph57%30.15 "HgN/A
9:50 AM75 °FPassing clouds.6 mph61%30.15 "HgN/A
8:50 AM73 °FPassing clouds.6 mph65%30.15 "HgN/A
7:50 AM68 °FPassing clouds.2 mph73%30.12 "HgN/A
6:50 AM64 °FPassing clouds.No wind78%30.12 "HgN/A
5:50 AM64 °FClear.6 mph83%30.09 "Hg10 mi
4:50 AM63 °FClear.5 mph88%30.09 "Hg10 mi
3:50 AM64 °FClear.5 mph83%30.07 "Hg10 mi
2:50 AM68 °FClear.3 mph73%30.07 "Hg10 mi
1:50 AM68 °FClear.5 mph78%30.09 "Hg10 mi
12:50 AM68 °FPassing clouds.3 mph78%30.09 "HgN/A
11:50 PM
Dec 17
70 °FPassing clouds.5 mph73%30.09 "HgN/A
10:50 PM68 °FPassing clouds.5 mph78%30.09 "HgN/A
9:50 PM70 °FClear.No wind78%30.12 "Hg10 mi
8:50 PM70 °FClear.5 mph73%30.09 "Hg10 mi
7:50 PM72 °FClear.6 mph73%30.09 "Hg10 mi
6:50 PM73 °FClear.7 mph69%30.09 "Hg10 mi
5:50 PM73 °FClear.9 mph69%30.09 "Hg10 mi
4:50 PM75 °FPassing clouds.10 mph65%30.09 "HgN/A
3:50 PM75 °FPassing clouds.10 mph65%30.09 "HgN/A
2:50 PM77 °FPassing clouds.10 mph61%30.09 "HgN/A
1:50 PM77 °FPassing clouds.9 mph61%30.09 "HgN/A
Weather by CustomWeather, © 2014

See weather overviewHow to use our weather pages